Tracking 35275 objects as of 9-Sep-2026
HD Live streaming from Space Station
objects crossing your sky now

QIANFAN-23

Track QIANFAN-23 now!
10-day predictions
QIANFAN-23 is classified as:


NORAD ID: 61556
Int'l Code: 2024-185E
Launch date: October 15, 2024
Source: People's Republic of China (PRC)
Launch site: Taiyaun Space Center, China (TSC)
Your satellite tracking list
Your tracking list is empty




NASA's NSSDC Master Catalog

Two Line Element Set (TLE):
1 61556U 24185E   26252.26900279  .00000308  00000-0  14769-3 0  9996
2 61556  88.9831  46.6268 0008415 149.7454 210.4221 14.16547645108044
Source of the keplerian elements: AFSPC